Location: Newark
(30.1000°N, 109.4667°E)
Time: 15:23:54
(UTC+00:00)

Vanguard 1 Rocket - Pass Details

Date: 21 February 2020
Orbit: 650 x 4227 km, 34.3° (Epoch: 30 March)

Event Time Altitude Azimuth Distance (km) Brightness Sun altitude
Exits shadow 20:38:42 26° 61° (ENE) 1,341 8.7 -34.8°
Drops below altitude 10° 20:40:39 10° 71° (ENE) 2,071 10.0 -34.4°
Sets 20:42:47 0° 76° (ENE) 2,950 11.1 -33.9°
